Regional Weather Roundup
Issued by NWS Charleston, SC

Current Version | Previous Version | Graphics & Text | Print | Product List | Glossary On
Versions: 1 2 3 4 5 6 7 8 9 10 11 12 13 14 15 16 17 18 19 20 21 22 23 24 25 26 27 28 29 30 31 32 33 34 35 36 37 38 39 40 41 42 43 44 45 46 47 48 49 50
000
ASUS42 KCHS 301927
RWRCHS

REGIONAL WEATHER ROUNDUP
NATIONAL WEATHER SERVICE CHARLESTON SC
300 PM EDT TUE JUN 30 2015

NOTE: "FAIR" INDICATES FEW OR NO CLOUDS BELOW 12,000 FEET WITH NO
SIGNIFICANT WEATHER AND/OR OBSTRUCTIONS TO VISIBILITY.

NOT ALL STATIONS ARE QUALITY CONTROLLED BY THE NATIONAL
WEATHER SERVICE. USE DATA WITH CAUTION...ESPECIALLY
DEWPOINT OBSERVATIONS.

SCZ027-030-031-034>040-042>050-302000-
...SOUTHEAST SOUTH CAROLINA...

CITY           SKY/WX    TMP DP  RH WIND       PRES   REMARKS
N CHARLESTON   MOSUNNY   91  66  43 SW10G18   29.95F HX  93
WATERFRONT PAR   N/A     86  73  65 SW10      29.95F HX  93
MOUNT PLEASANT FAIR      88  75  66 S17       29.96F HX  97
JOHNS ISLAND   FAIR      86  77  74 S16       29.97F HX  97
PINOPOLIS      NOT AVBL
MONCKS CORNER  FAIR      93  64  38 SW6       29.93F HX  95
SUMMERVILLE    FAIR      91  70  49 S7        29.95F HX  97
BEAUFORT MCAS  PTSUNNY   88  76  67 S9        29.96F HX  99
BEAUFORT ARPT  FAIR      88  77  70 S10G17    29.97R HX 100
HILTON HEAD IS MOSUNNY   86  77  74 S9G16     29.99F HX  97
WALTERBORO     PTCLDY    90  68  48 SW8G18    29.95F HX  93
ALLENDALE      MOCLDY    91  68  46 S8G15     29.93S HX  95

...SOUTHERN MIDLANDS AND PEE DEE...

CITY           SKY/WX    TMP DP  RH WIND       PRES   REMARKS
GEORGETOWN     NOT AVBL
KINGSTREE      NOT AVBL
ORANGEBURG     MOSUNNY   94  63  35 SW14G20   29.92F HX  95
BARNWELL       FAIR      93  66  40 SW8       29.93F HX  96
AIKEN          MOCLDY    88  61  40 W7        29.95F
MANNING        FAIR     N/A N/A N/A S12G18    29.92F
COLUMBIA       MOSUNNY   93  64  38 SW10      29.90F HX  94
SUMTER         MOSUNNY   92  66  42 S16       29.90F HX  95
FLORENCE       SUNNY     94  62  34 SW15      29.90F HX  94
MYRTLE BEACH   MOSUNNY   88  73  62 S14G20    29.97F HX  96
N MYRTLE BEACH MOSUNNY   87  74  64 S16       29.96F HX  95

$$

GAZ063-065-086>088-099>101-113>116-118-119-134>141-150-302000-
...SOUTHEAST GEORGIA...

CITY           SKY/WX    TMP DP  RH WIND       PRES   REMARKS
SAVANNAH ARPT  CLOUDY    91  68  46 S9        29.97F HX  95
HUNTER AAF     PTSUNNY   90  74  60 SW9       29.96F HX  99
FORT STEWART   PTSUNNY   89  70  54 SW10      29.96F HX  94
STATESBORO     MOSUNNY   92  74  55 SW6       29.96F HX 101
SYLVANIA       CLEAR     92  71  50 SW7       29.95F HX  98
CLAXTON        FAIR      90  72  55 SW9       29.98R HX  96

...CSRA...CENTRAL AND FAR SOUTHEAST GEORGIA...

CITY           SKY/WX    TMP DP  RH WIND       PRES   REMARKS
THOMSON        CLOUDY    72  70  96 MISG      30.06R VSB 1/2
AUGUSTA-BUSH   TSTM      75  67  76 VRB3G48   29.95R
AUGUSTA-DANIEL TSTM      77  70  79 W8G18     29.98R
SWAINSBORO     MOCLDY    91  70  49 W16G30    29.98R HX  97
VIDALIA        PTSUNNY   88  70  55 SW10      29.99S HX  92
EASTMAN        TSTM      70  70 100 NW5       30.06R
HAZLEHURST     MOCLDY    83  73  72 SW7       30.03R
ALMA           LGT RAIN  78  72  81 SW15G26   30.04R
WAYCROSS       TSTM      77  75  93 SW10      30.05R
JESUP          FAIR      82  72  69 W8G16     30.03R
BAXLEY         RAIN      79  70  73 W15G29    30.04R
BRUNSWICK      CLOUDY    81  77  89 CALM      30.03R THUNDER
SAINT SIMONS   CLOUDY    81  71  71 SW10G20   30.03R

$$

SCZ027-028-034-036>038-045-046-048>050-GAZ119-141-302000-
...LAKE AND SUPPLEMENTAL COASTAL OBSERVATIONS...

STATION/POSITION TIME  TEMP    WIND        PRES    WAVE   SWELL
                       AIR SEA DIR/SP/G            HT/PER HT/PER/DIR
                 (UTC) (F)     (DEG/KT/KT) (MB)    (FT/S) (FT/S/D)
UPR LAKE MARION  NOT AVBL
WINYAH BAY       1800   88     240/  8     1014.0F
LAKE MURRAY      1800   88     180/  7/  8 1013.2F
ACE BASIN NERRS  1800   89     230/  2     1016.0F
FORT PULASKI     1900   85 85  160/  9/ 16 1015.8F
SAPELO ISLAND    1900   89     230/  9     1016.0S

$$

ANZ835-935-AMZ111-154-330-350-352-354-370-450-454-472-302000-
...C-MAN AND BUOY OBSERVATIONS...

STATION/POSITION TIME  TEMP    WIND        PRES    WAVE   SWELL
                       AIR SEA DIR/SP/G            HT/PER HT/PER/DIR
                 (UTC) (F)     (DEG/KT/KT) (MB)    (FT/S) (FT/S/D)
BUOY 41004       1850   82 82  200/ 12/ 14 1015.7F   3/ 7   2/ 7
BUOY 41008       1850   79 81  180/ 12/ 14 1016.4F   2/ 8   2/110/ 8
FOLLY BEACH CMAN 1900   83     190/ 15/ 18 1015.3F
CAPERS NEARSHORE NOT AVBL
FRIPP NEARSHORE  1800   82     200/ 12/ 14 1015.7F


STATION/POSITION TIME  TEMP    WIND        PRES    WAVE   SWELL
                       AIR SEA DIR/SP/G            HT/PER HT/PER/DIR
                 (UTC) (F)     (DEG/KT/KT) (MB)    (FT/S) (FT/S/D)
5E ST. MARYS GA  1821      80                N/A     2/ 9
FRYING PAN BUOY  1850   82 80  220/ 14/ 14 1016.0F   4/ 6   2/120/ 7
BUOY 41025       1850   82 83  210/ 14/ 17 1014.9F   3/ 8   2/ 90/ 8
CAPE LOOKOUT NC  1900   83     210/ 12/ 16 1014.7F
BUOY 41002       1850   78 80  230/ 12/ 14 1018.7F   6/ 7   5/200/ 7
BUOY 41010       1820   83 84  250/ 10/ 12 1019.7F
ST AUGUSTINE FL  1900   88 75  240/  8/ 11 1017.8F


$$



USA.gov is the U.S. government's official web portal to all federal, state and local government web resources and services.